Regional Weather Roundup
Issued by NWS

Home | Current Version | Previous Version | Graphics & Text | Print | Product List | Glossary On
Versions: 1 2 3 4 5 6 7 8 9 10 11 12 13 14 15 16 17 18 19 20 21 22 23 24 25 26 27 28 29 30 31 32 33 34 35 36 37 38 39 40 41 42 43 44 45 46 47 48 49 50
000
ASUS43 KBIS 310620
RWRND

NORTH DAKOTA REGIONAL WEATHER ROUNDUP
NATIONAL WEATHER SERVICE BISMARCK ND
100 AM CDT FRI OCT 31 2014

NOTE: "FAIR" INDICATES FEW OR NO CLOUDS BELOW 12,000 FEET WITH NO
SIGNIFICANT WEATHER AND/OR OBSTRUCTIONS TO VISIBILITY.


NDZ001>003-009>011-017-310700-
NORTHWEST NORTH DAKOTA

CITY           SKY/WX    TMP DP  RH WIND       PRES   REMARKS
WILLISTON      CLOUDY    29  23  78 SE10      30.49F WCI  20
6HR MIN TEMP:  29; 6HR MAX TEMP:  36;

MINOT          CLEAR     18  14  84 CALM      30.54F
MINOT AFB      CLEAR     14  13  95 S3        30.54F
$$

NDZ018>021-031>035-040>046-310700-
SOUTHWEST NORTH DAKOTA

CITY           SKY/WX    TMP DP  RH WIND       PRES   REMARKS
BISMARCK       CLEAR     20  17  88 CALM      30.58F
6HR MIN TEMP:  20; 6HR MAX TEMP:  35;

DICKINSON      CLOUDY    29  25  85 SE16      30.47F WCI  17
GARRISON         N/A     18  16  92 CALM      30.55S
6HR MIN TEMP:  16; 6HR MAX TEMP:  31;

HETTINGER ARPT CLOUDY    30  26  85 SE10      30.51S
$$

NDZ004>008-012>016-024-026-027-054-310700-
NORTHEAST NORTH DAKOTA

CITY           SKY/WX    TMP DP  RH WIND       PRES   REMARKS
GRAND FORKS    CLEAR     19  14  81 N7        30.59R WCI  10
GRND FRKS AFB  CLEAR     20  15  82 N6        30.60R WCI  12
DEVILS LAKE    CLEAR     18   9  68 NE3       30.57S
$$

NDZ022-023-025-028>030-036>039-047>053-310700-
SOUTHEAST NORTH DAKOTA

CITY           SKY/WX    TMP DP  RH WIND       PRES   REMARKS
FARGO          CLEAR     23  18  81 NW12      30.57R WCI  12
6HR MIN TEMP:  22; 6HR MAX TEMP:  33;

JAMESTOWN      CLEAR     18  14  84 NE6       30.57  WCI  10
$$




USA.gov is the U.S. government's official web portal to all federal, state and local government web resources and services.